SDM2456 UEEE-UNKL

Flight info

Callsign SDM2456
Flight time N/A
Altitude 38000
Route ABGUR G370 DEM W105 LANAP W339 BARIK W261 OKRIM
Aircraft A319/M-SDFGIRWY/LB1

Departure

Time 2026-04-23 16:48
Airport Platon Oyunsky Yakutsk International Airport (UEEE)

Arrival

Time N/A
Airport Krasnoyarsk International Airport (UNKL)
Time Latitude Longitude Altitude Speed Heading
2026-04-23 16:08 62.08919 129.75646 334 ft 0 kts 118°
2026-04-23 16:35 62.08919 129.75645 334 ft 1 kts 118°
2026-04-23 16:35 62.08931 129.75600 332 ft 4 kts 127°
2026-04-23 16:35 62.08950 129.75561 329 ft 4 kts 154°
2026-04-23 16:36 62.08961 129.75551 331 ft 1 kts 167°
2026-04-23 16:40 62.08960 129.75551 330 ft 0 kts 167°
2026-04-23 16:40 62.08953 129.75551 334 ft 4 kts 178°
2026-04-23 16:41 62.08911 129.75508 331 ft 9 kts 211°
2026-04-23 16:41 62.08847 129.75430 330 ft 11 kts 208°
2026-04-23 16:41 62.08771 129.75347 332 ft 13 kts 196°
2026-04-23 16:41 62.08709 129.75464 334 ft 14 kts 117°
2026-04-23 16:42 62.08657 129.75662 333 ft 17 kts 120°
2026-04-23 16:42 62.08596 129.75876 334 ft 13 kts 126°
2026-04-23 16:42 62.08561 129.75974 334 ft 8 kts 127°
2026-04-23 16:42 62.08522 129.76089 335 ft 11 kts 122°
2026-04-23 16:43 62.08545 129.76246 330 ft 15 kts 36°
2026-04-23 16:43 62.08656 129.76424 333 ft 24 kts 36°
2026-04-23 16:43 62.08811 129.76669 331 ft 31 kts 37°
2026-04-23 16:43 62.08995 129.76963 331 ft 34 kts 37°
2026-04-23 16:44 62.09185 129.77268 330 ft 34 kts 37°
2026-04-23 16:44 62.09381 129.77585 327 ft 37 kts 37°
2026-04-23 16:44 62.09590 129.77921 329 ft 38 kts 37°
2026-04-23 16:44 62.09799 129.78255 324 ft 38 kts 37°
2026-04-23 16:45 62.10005 129.78584 328 ft 38 kts 37°
2026-04-23 16:45 62.10226 129.78937 323 ft 41 kts 37°
2026-04-23 16:45 62.10436 129.79273 328 ft 37 kts 36°
2026-04-23 16:45 62.10599 129.79422 326 ft 16 kts
2026-04-23 16:46 62.10580 129.79505 324 ft 14 kts 215°
2026-04-23 16:46 62.10537 129.79433 325 ft 0 kts 217°
2026-04-23 16:47 62.10385 129.79188 326 ft 67 kts 217°
2026-04-23 16:47 62.09807 129.78263 329 ft 138 kts 217°
2026-04-23 16:48 62.08968 129.76935 754 ft 151 kts 217°
2026-04-23 16:48 62.08110 129.75583 1404 ft 156 kts 216°
2026-04-23 16:48 62.07238 129.74187 2113 ft 157 kts 214°
2026-04-23 16:48 62.06362 129.72779 2805 ft 158 kts 215°
2026-04-23 16:49 62.05783 129.71843 3259 ft 157 kts 214°
2026-04-23 16:49 62.04566 129.69900 3917 ft 176 kts 214°
2026-04-23 16:49 62.03520 129.68243 4269 ft 198 kts 215°
2026-04-23 16:49 62.02353 129.66391 4650 ft 219 kts 215°
2026-04-23 16:50 62.01060 129.64338 5068 ft 244 kts 215°
2026-04-23 16:50 61.99642 129.62083 5747 ft 261 kts 215°
2026-04-23 16:50 61.98205 129.59655 6680 ft 269 kts 224°
2026-04-23 16:50 61.97196 129.56250 7587 ft 278 kts 249°
2026-04-23 16:51 61.96953 129.52133 8517 ft 286 kts 275°
2026-04-23 16:51 61.99626 129.41366 10642 ft 318 kts 303°
2026-04-23 16:52 62.00881 129.37269 10966 ft 342 kts 302°
2026-04-23 16:52 62.02201 129.32938 11544 ft 354 kts 302°
2026-04-23 16:52 62.03547 129.28492 12325 ft 359 kts 302°
2026-04-23 16:52 62.04910 129.23974 13126 ft 364 kts 302°
2026-04-23 16:53 62.05818 129.20957 13659 ft 367 kts 302°
2026-04-23 16:54 62.13535 128.95094 17516 ft 390 kts 301°
2026-04-23 16:54 62.14503 128.91837 17979 ft 393 kts 301°
2026-04-23 16:54 62.16358 128.85155 18814 ft 397 kts 293°
2026-04-23 16:55 62.17326 128.79629 19423 ft 397 kts 282°
2026-04-23 16:55 62.17852 128.73827 20039 ft 398 kts 276°
2026-04-23 16:55 62.18280 128.67950 20676 ft 401 kts 276°
2026-04-23 16:55 62.18718 128.62017 21292 ft 404 kts 276°
2026-04-23 16:56 62.19162 128.56051 21899 ft 407 kts 276°
2026-04-23 16:56 62.19609 128.50036 22499 ft 410 kts 276°
2026-04-23 16:56 62.20053 128.43974 23081 ft 413 kts 275°
2026-04-23 16:56 62.20498 128.37869 23655 ft 417 kts 275°
2026-04-23 16:57 62.20794 128.33800 23977 ft 419 kts 275°
2026-04-23 16:57 62.21090 128.29706 24284 ft 421 kts 275°
2026-04-23 16:57 62.21836 128.19256 25045 ft 426 kts 275°
2026-04-23 16:57 62.22279 128.12943 25471 ft 430 kts 275°
2026-04-23 16:58 62.22719 128.06668 25906 ft 433 kts 275°
2026-04-23 16:58 62.23167 128.00266 26340 ft 436 kts 275°